Weather History for KMSP - August, 2014

Change the Weather History Date:

Saturday, August 9, 2014

  Actual Average Record
Temperature  
Mean Temperature 73 °F 72 °F  
Max Temperature 79 °F 82 °F 95 °F (1947)
Min Temperature 67 °F 63 °F 46 °F (1972)
Degree Days  
Heating Degree Days 0 0  
Month to date heating degree days 0 0  
Since 1 June heating degree days 28 49  
Since 1 July heating degree days 7 5  
Cooling Degree Days 8 8  
Month to date cooling degree days 87 72  
Year to date cooling degree days 518 548  
Since 1 June cooling degree days 466 506  
Growing Degree Days 22 (Base 50)    
Moisture  
Dew Point 60 °F    
Average Humidity 65    
Maximum Humidity 81    
Minimum Humidity 48    
Precipitation  
Precipitation T in 0.14 in 3.34 in (1914)
Month to date precipitation 0.67 1.33  
Year to date precipitation 28.77 19.20  
Snow  
Snow 0.00 in 0.00 in 0.00 in ()
Month to date snowfall 0.0 0.0  
Since 1 June snowfall 0.0 0.0  
Since 1 July snowfall 0.0 0.0  
Snow Depth 0.00 in    
Sea Level Pressure  
Sea Level Pressure 30.08 in    
Wind  
Wind Speed 8 mph (ESE)    
Max Wind Speed 15 mph    
Max Gust Speed 18 mph    
Visibility 10 miles    
Events Rain    
T = Trace of Precipitation, MM = Missing Value Source: NWS Daily Summary

Daily Weather History Graph

Daily Weather History Graph

Search for Another Location

Airport or City:

Trip Planner

Search our weather history database for the weather conditions in past years. The results will help you decide how hot, cold, wet, or windy it might be!

Date:

Astronomy

Aug. 09, 2014 Rise Set
Actual Time 6:07 AM CDT 8:28 PM CDT
Civil Twilight 5:35 AM CDT 9:00 PM CDT
Nautical Twilight 4:54 AM CDT 9:40 PM CDT
Astronomical Twilight 4:09 AM CDT 10:26 PM CDT
Moon 7:28 PM CDT (8/9) 4:49 AM CDT (8/9)
Length of Visible Light 15h 25m
Length of Day
14h 20m
Waxing Gibbous, 98% of the Moon is Illuminated
Aug 9
Waxing Gibbous
Aug 10
Full
Aug 17
Last Quarter
Aug 25
New
Sep 2
First Quarter

Hourly Weather History & Observations

Time (CDT) Temp. Dew Point Humidity Pressure Visibility Wind Dir Wind Speed Gust Speed Precip Events Conditions
12:53 AM 71.1 °F 61.0 °F 70% 30.06 in 10.0 mi ENE 3.5 mph - N/A   Mostly Cloudy
1:53 AM 70.0 °F 60.1 °F 71% 30.05 in 10.0 mi East 5.8 mph - N/A   Partly Cloudy
2:53 AM 69.1 °F 60.1 °F 73% 30.06 in 10.0 mi East 8.1 mph - N/A   Partly Cloudy
3:53 AM 69.1 °F 60.1 °F 73% 30.07 in 10.0 mi ESE 4.6 mph - N/A   Scattered Clouds
4:53 AM 68.0 °F 60.1 °F 76% 30.09 in 10.0 mi ESE 5.8 mph - N/A   Mostly Cloudy
5:53 AM 66.9 °F 60.1 °F 79% 30.09 in 10.0 mi ESE 5.8 mph - N/A   Mostly Cloudy
6:53 AM 68.0 °F 61.0 °F 78% 30.09 in 9.0 mi SE 6.9 mph - N/A   Overcast
7:53 AM 69.1 °F 60.1 °F 73% 30.10 in 9.0 mi SE 9.2 mph - N/A   Overcast
8:53 AM 70.0 °F 60.1 °F 71% 30.11 in 10.0 mi SE 8.1 mph - N/A   Overcast
9:53 AM 72.0 °F 60.1 °F 66% 30.12 in 10.0 mi SE 5.8 mph - N/A   Overcast
10:53 AM 75.9 °F 60.1 °F 58% 30.12 in 10.0 mi SSE 9.2 mph - N/A   Mostly Cloudy
12:53 PM 78.1 °F 57.0 °F 48% 30.10 in 10.0 mi SE 9.2 mph - N/A   Overcast
1:53 PM 78.1 °F 57.9 °F 50% 30.10 in 10.0 mi SE 11.5 mph - 0.00 in   Overcast
2:53 PM 77.0 °F 57.0 °F 50% 30.09 in 10.0 mi ESE 12.7 mph - 0.00 in   Overcast
3:53 PM 77.0 °F 57.9 °F 52% 30.08 in 10.0 mi ESE 11.5 mph - N/A   Overcast
4:53 PM 77.0 °F 61.0 °F 58% 30.07 in 10.0 mi East 9.2 mph - 0.00 in Rain Light Rain
5:53 PM 78.1 °F 61.0 °F 56% 30.06 in 10.0 mi SE 8.1 mph - 0.00 in   Mostly Cloudy
6:53 PM 77.0 °F 61.0 °F 58% 30.05 in 10.0 mi SE 6.9 mph - N/A   Mostly Cloudy
7:53 PM 77.0 °F 61.0 °F 58% 30.05 in 9.0 mi ESE 8.1 mph - N/A   Mostly Cloudy
8:53 PM 75.0 °F 63.0 °F 66% 30.06 in 10.0 mi ESE 6.9 mph - N/A   Mostly Cloudy
9:53 PM 73.4 °F 62.6 °F 69% 30.07 in 9.0 mi ESE 8.1 mph - N/A   Mostly Cloudy
10:53 PM 73.4 °F 62.6 °F 69% 30.06 in 9.0 mi ESE 6.9 mph - N/A   Scattered Clouds
11:53 PM 71.1 °F 62.1 °F 73% 30.05 in 9.0 mi SE 5.8 mph - N/A   Scattered Clouds